Vertical_Velocity
-2 -2 -1 -1 -3 -2 -1 -2 -1 -2 -2 -2 -2 -2 -1 -2 -2 -2 -2 -1 0 -1 -1 -1 2 2 2 -6 -2 -1 -1 1 -1 0 2 -2 -0 -5 2 0 3 -10 -3 6 5
-1 -2 -2 -2 -3 -2 -2 -2 -1 -1 -1 -2 -2 -1 -1 -1 -0 0 -1 1 1 1 -1 -2 -2 -2 -2 3 -2 -1 -1 -2 -2 -1 2 -2 -1 6 -2 -3 -4 17 -6 -5 7
-0 -1 -0 0 -0 -2 -2 -1 -1 -1 -2 -2 -2 -2 -1 -1 -0 -0 1 -3 -3 -3 -4 -3 -4 -2 -3 -2 2 1 -0 -3 1 -0 -4 -2 -2 -5 1 9 -4 1 9 7 -6
-0 -0 0 -0 -0 -1 -1 -1 -2 -2 -2 -2 -1 -2 -2 -0 -3 -1 -2 -3 -3 -2 -2 -1 -1 -3 -1 -3 -1 -2 -0 4 -2 -4 -4 -1 8 -0 -11 -3 -3 -7 -9 -4 -5
1 0 -1 -1 -0 0 -0 -1 -2 -2 -1 -2 -2 -2 -0 -3 -2 -2 -2 -2 -2 -3 -3 -2 -2 -1 -2 -5 -3 -3 0 3 -7 -1 4 13 -13 -5 -6 -9 -8 -7 -8 -7 -6
-1 -1 -0 0 -0 0 -0 0 0 -2 -0 -1 -1 -2 -2 -4 -2 -2 -1 -1 -2 -2 -2 -3 -1 -3 -2 1 -3 -4 -5 -1 -3 -2 -1 -8 -4 -1 -8 -1 -2 -6 -0 -4 -2
-0 -0 -1 -1 -0 -0 -1 -1 -2 -1 -1 -1 -1 -1 -1 -2 -1 -2 -3 1 -3 -3 -2 -3 -3 -5 -4 -2 -1 -4 -2 1 4 1 -5 -4 -5 -4 -5 -7 -7 -4 -3 -4 -0
-0 -0 0 -0 -1 -2 -1 1 0 -1 -0 -1 -1 -1 -2 -2 -1 0 -1 -4 -3 -2 -2 -2 -4 -0 -7 -6 4 1 3 -8 2 -7 -5 -4 -7 -5 -8 -10 -10 2 -4 -1 -2
-1 -1 -1 -1 -0 -1 -2 -3 -0 -1 -1 0 -0 -1 -1 -1 -2 -2 -3 -1 -2 0 -2 -1 -1 -3 5 -3 -10 -5 5 -3 4 -4 -3 -4 -5 1 -7 -7 -0 -17 1 -0 0
-1 -2 -2 -1 -1 -1 -2 -2 -4 3 1 1 -1 0 2 0 -1 -1 -1 1 -2 -0 -0 -4 0 -4 -7 -0 6 -1 -1 -2 7 -1 -2 -4 1 -2 -5 -5 -7 -5 -8 -1 1
-1 -1 -3 -2 -1 -0 0 5 -4 -8 -2 -2 -3 -1 -1 -1 -1 -0 -2 -2 1 -3 -0 2 -3 -4 -5 -5 -5 -2 1 -2 0 -3 -3 1 -1 -13 1 -10 -9 -3 -2 -7 -1
-2 -1 -1 -1 -2 -2 -1 -4 -1 -0 1 1 2 0 0 -2 -2 -1 -1 -0 3 1 -2 -4 -2 -4 -6 -3 -0 -3 -1 -1 -3 -2 0 1 -2 -5 -14 -11 -11 -8 -6 -6 -5
-1 -1 -0 -2 0 -3 -2 -0 -3 -2 -2 -2 -2 -1 -1 -1 -2 -1 -1 1 -1 1 -2 1 -1 -2 -0 -2 -2 -3 -2 0 -1 -2 -3 0 0 0 -0 -11 16 -11 -3 0 2
-1 -0 -1 -0 -3 -1 -2 -2 -2 -1 -2 -1 -2 -3 -2 -1 -0 -1 0 -1 -0 -1 -0 1 -1 -2 -5 -2 -3 0 -3 -0 0 -3 -2 1 -1 -4 -2 -2 8 11 7 5 6
-2 -1 1 -2 -1 -3 -2 -2 -1 -2 -2 -3 -3 -3 -2 -2 -2 -1 -1 -1 -5 -6 -2 -3 2 -1 -2 -2 -2 -3 -1 -4 3 0 -1 -0 -0 1 2 -1 1 3 2 4 23
-3 -1 -3 -3 -1 -0 -3 -3 -2 -3 -3 -3 -3 -3 -1 -2 -2 -2 -7 -4 -1 -0 1 1 1 6 4 -1 -3 -3 -0 -1 -0 0 2 1 -5 0 2 2 5 4 7 -3 9
-1 -1 -0 -2 -1 -1 -0 -1 -1 -4 -2 -1 -1 -2 -4 -3 -3 -4 1 1 0 -1 -3 -3 -4 -1 3 -0 3 -1 -1 -1 1 4 1 2 -0 -2 2 2 0 -2 -0 6 1
-0 -1 -3 1 -1 0 -2 -2 -4 -3 -4 -3 -1 -3 -4 -0 -2 -3 -3 1 -4 -5 -2 5 4 1 -0 0 -1 1 1 -1 -3 1 0 2 2 -2 -1 -0 -1 1 -0 1 1
-3 -5 -1 -3 -2 -0 -2 -1 -0 -0 1 -1 -4 -1 0 3 1 3 3 -2 1 1 -1 -7 -2 2 -0 -0 2 1 0 0 -2 -2 -0 3 1 1 0 -2 -0 -1 -2 3 -1
1 -4 1 -0 -1 -2 -2 -3 -1 -0 -2 -4 -3 -0 -1 -4 -7 -8 -1 -1 -1 -2 -1 2 5 -2 -8 -3 1 2 -1 -1 2 -2 -3 -2 3 -0 -0 -1 -1 2 0 0 5
5 5 1 -5 0 -1 -2 1 -3 -2 1 -1 -3 -1 -5 2 -1 -1 -1 -2 1 -3 -2 -4 0 -1 3 -4 -4 2 6 5 1 2 1 -1 2 3 3 1 -4 -3 -0 -1 -2
1 4 3 -0 -4 3 -2 -1 -0 -2 -2 -2 -2 -2 -2 -5 3 2 -0 -2 -2 -0 1 1 -4 5 2 5 1 -3 -0 2 -0 -0 0 -2 11 -1 2 2 -0 -1 -4 -1 -1
1 2 1 -3 -5 0 4 -3 -2 2 -3 2 -4 -3 1 -5 -6 -2 -2 -1 -4 -4 -4 2 -2 -5 2 4 4 -1 -3 2 4 4 7 -3 4 -2 2 3 -3 3 -1 -5 -5
-5 -3 4 -1 0 -3 -3 4 -1 -1 4 -3 1 -4 1 2 -6 -1 -2 3 -1 -2 -1 -3 8 1 -4 -5 -0 5 -0 -0 -1 -1 2 7 3 2 4 2 -2 -1 3 2 -3
-1 -2 3 -2 2 -0 -2 -4 -2 -2 7 -4 6 -3 -6 -1 7 1 6 -2 -2 0 3 -2 6 -7 6 -0 -4 3 14 3 -5 3 -5 10 -0 3 5 3 2 -0 4 3 3
-5 -6 2 5 3 -0 -3 4 -1 -4 -3 4 3 0 2 3 -7 -2 -4 -6 7 5 -4 3 -5 -3 15 -2 -7 -0 9 4 4 7 -2 -1 -4 2 1 2 0 1 1 1 2
-11 -4 -6 12 5 -3 -3 -3 -3 1 5 -8 -6 2 -1 -4 -1 1 -2 1 -3 -3 -1 1 -5 -6 8 4 -3 5 6 5 4 2 -2 -3 1 1 1 3 5 3 -0 0 -0
Height
5849 5848 5846 5844 5842 5840 5838 5836 5834 5832 5830 5827 5825 5822 5820 5817 5816 5814 5812 5811 5807 5804 5800 5796 5793 5790 5786 5782 5781 5779 5777 5775 5774 5773 5771 5769 5767 5765 5764 5763 5762 5760 5758 5760 5764
5849 5847 5845 5844 5842 5840 5839 5837 5835 5833 5830 5828 5825 5822 5819 5817 5816 5813 5812 5809 5805 5800 5796 5792 5789 5785 5782 5780 5776 5774 5771 5770 5769 5767 5764 5762 5760 5757 5755 5752 5751 5751 5749 5747 5749
5850 5848 5846 5845 5843 5841 5839 5838 5835 5833 5831 5828 5826 5823 5820 5818 5816 5813 5811 5808 5803 5798 5794 5789 5785 5781 5778 5775 5771 5769 5767 5764 5762 5759 5756 5754 5750 5746 5744 5741 5737 5734 5733 5732 5731
5853 5850 5848 5846 5844 5842 5840 5838 5836 5834 5831 5829 5826 5823 5821 5818 5817 5813 5810 5806 5801 5796 5792 5786 5782 5778 5773 5769 5766 5764 5763 5761 5758 5753 5750 5746 5741 5736 5731 5727 5723 5718 5715 5712 5715
5856 5853 5850 5848 5845 5843 5841 5838 5836 5834 5832 5829 5827 5824 5822 5819 5816 5813 5809 5805 5800 5795 5791 5785 5780 5775 5771 5765 5762 5758 5757 5755 5750 5746 5744 5740 5732 5727 5723 5721 5716 5712 5707 5702 5700
5858 5855 5852 5849 5846 5844 5842 5840 5837 5835 5832 5830 5827 5825 5823 5820 5816 5812 5809 5804 5800 5796 5790 5785 5779 5774 5769 5765 5760 5756 5754 5751 5747 5742 5737 5731 5727 5723 5717 5711 5706 5700 5695 5691 5690
5858 5856 5854 5851 5848 5845 5843 5841 5839 5836 5833 5831 5828 5825 5822 5820 5815 5811 5808 5804 5800 5795 5790 5785 5780 5774 5767 5763 5758 5754 5751 5747 5740 5734 5729 5726 5723 5719 5714 5705 5697 5693 5687 5683 5681
5858 5856 5854 5852 5850 5847 5844 5842 5839 5836 5834 5830 5827 5825 5822 5818 5814 5810 5807 5804 5799 5794 5789 5784 5779 5775 5768 5762 5759 5754 5748 5742 5740 5733 5730 5728 5723 5716 5706 5697 5687 5685 5679 5675 5673
5858 5856 5853 5851 5849 5847 5844 5842 5839 5836 5833 5830 5827 5823 5820 5817 5813 5809 5807 5803 5798 5793 5789 5783 5779 5774 5769 5763 5758 5753 5749 5742 5738 5732 5730 5726 5723 5715 5701 5690 5681 5673 5665 5665 5666
5858 5855 5853 5851 5848 5846 5843 5840 5838 5836 5833 5830 5826 5824 5819 5816 5811 5809 5805 5801 5797 5793 5788 5783 5779 5773 5767 5763 5758 5753 5746 5740 5735 5731 5729 5728 5723 5714 5703 5690 5677 5667 5663 5659 5660
5858 5855 5852 5850 5847 5845 5843 5840 5837 5835 5831 5828 5826 5823 5819 5815 5811 5808 5804 5800 5796 5792 5788 5783 5778 5773 5767 5762 5756 5752 5744 5737 5732 5729 5730 5726 5723 5717 5705 5694 5684 5672 5666 5664 5665
5857 5854 5851 5848 5845 5844 5841 5838 5836 5834 5830 5827 5824 5821 5818 5814 5811 5807 5803 5800 5795 5790 5786 5783 5777 5772 5766 5761 5756 5750 5744 5737 5730 5728 5728 5726 5720 5716 5708 5700 5689 5678 5673 5670 5669
5856 5853 5850 5848 5845 5842 5838 5836 5833 5830 5827 5823 5821 5818 5816 5813 5810 5806 5802 5797 5793 5789 5785 5781 5777 5771 5765 5760 5755 5750 5745 5738 5733 5728 5723 5724 5719 5713 5709 5704 5696 5687 5680 5673 5669
5855 5853 5850 5847 5845 5841 5838 5836 5832 5828 5825 5822 5819 5817 5812 5809 5807 5802 5799 5797 5792 5788 5783 5780 5775 5771 5766 5761 5755 5751 5746 5739 5733 5730 5727 5723 5718 5713 5711 5706 5702 5697 5687 5682 5682
5854 5851 5849 5846 5844 5841 5838 5834 5830 5827 5824 5820 5815 5812 5808 5805 5803 5800 5797 5793 5789 5786 5783 5777 5774 5770 5765 5761 5756 5752 5746 5740 5734 5729 5727 5722 5718 5715 5712 5707 5705 5700 5697 5694 5689
5851 5850 5847 5844 5841 5839 5836 5832 5829 5826 5821 5818 5814 5811 5808 5805 5801 5797 5794 5791 5787 5782 5779 5776 5772 5769 5765 5761 5756 5751 5746 5742 5737 5732 5727 5723 5719 5715 5713 5710 5707 5702 5700 5697 5695
5848 5847 5845 5841 5839 5837 5834 5832 5829 5823 5820 5817 5811 5808 5805 5801 5797 5793 5790 5786 5783 5780 5776 5772 5768 5765 5762 5758 5755 5750 5746 5742 5739 5733 5728 5723 5720 5716 5714 5710 5707 5704 5701 5700 5699
5846 5843 5842 5839 5836 5833 5831 5829 5826 5822 5818 5814 5810 5805 5801 5797 5794 5789 5783 5781 5778 5775 5773 5770 5767 5762 5758 5756 5752 5749 5745 5741 5737 5733 5729 5724 5721 5717 5714 5711 5708 5706 5704 5701 5699
5845 5842 5838 5836 5833 5830 5828 5825 5822 5819 5815 5811 5808 5804 5800 5795 5789 5785 5781 5776 5772 5769 5767 5763 5762 5758 5756 5752 5749 5745 5742 5739 5736 5733 5729 5726 5722 5717 5714 5711 5709 5707 5705 5703 5700
5843 5840 5837 5832 5830 5827 5824 5821 5816 5813 5810 5806 5802 5800 5795 5791 5785 5780 5776 5772 5768 5765 5761 5759 5757 5753 5750 5747 5745 5742 5739 5736 5733 5730 5726 5723 5721 5717 5714 5711 5709 5707 5705 5703 5701
5839 5836 5834 5830 5826 5823 5819 5815 5811 5807 5805 5803 5798 5794 5790 5785 5781 5777 5773 5767 5763 5758 5754 5750 5751 5749 5746 5742 5738 5736 5733 5730 5728 5725 5722 5721 5718 5716 5714 5711 5708 5705 5704 5702 5701
5833 5830 5828 5823 5822 5817 5814 5810 5806 5802 5798 5795 5791 5788 5785 5780 5776 5772 5767 5761 5757 5753 5749 5746 5743 5742 5740 5736 5733 5730 5728 5725 5721 5720 5716 5714 5716 5711 5709 5707 5704 5703 5702 5700 5698
5826 5824 5821 5817 5814 5809 5806 5804 5799 5796 5792 5789 5785 5780 5777 5774 5768 5765 5760 5757 5751 5747 5742 5739 5736 5732 5732 5730 5724 5721 5719 5717 5714 5713 5712 5707 5709 5706 5704 5701 5698 5697 5696 5694 5692
5819 5816 5814 5810 5807 5804 5800 5798 5794 5790 5787 5781 5779 5774 5770 5768 5761 5758 5754 5751 5746 5741 5736 5730 5730 5724 5720 5718 5713 5713 5710 5709 5707 5706 5703 5703 5697 5699 5700 5697 5692 5689 5687 5686 5684
5811 5808 5806 5804 5800 5797 5794 5790 5787 5782 5779 5774 5771 5766 5763 5759 5754 5750 5747 5743 5739 5735 5730 5724 5721 5716 5715 5710 5704 5701 5704 5699 5697 5698 5693 5696 5690 5690 5690 5689 5686 5683 5681 5679 5676
5803 5801 5799 5797 5793 5790 5787 5784 5780 5777 5772 5769 5765 5759 5756 5753 5748 5744 5740 5735 5732 5727 5722 5718 5714 5707 5706 5701 5697 5694 5693 5690 5689 5687 5685 5683 5682 5681 5679 5678 5676 5674 5672 5670 5667
5793 5792 5791 5790 5785 5783 5780 5776 5772 5768 5766 5762 5760 5755 5750 5745 5740 5736 5732 5728 5722 5719 5715 5711 5705 5701 5698 5693 5688 5689 5685 5682 5680 5677 5676 5674 5673 5671 5670 5668 5667 5664 5661 5658 5655